This is the latest recevied weather packets stored in our database for station/object KJ5JYX. If no packets are shown the sender has not sent any weather packets the latest 10 day(s).
| Time | Temp. | Humidity | Pressure | Rain* | Wind** | Luminosity | Snow |
|---|---|---|---|---|---|---|---|
| 1777482693 | 22.22° C | 90% | 1014.1 hPa | 0 mm | - | 119 W/m² | - |
| 1777482389 | 22.78° C | 90% | 1014.3 hPa | 0 mm | - | 169 W/m² | - |
| 1777482087 | 23.33° C | 91% | 1014.1 hPa | 0 mm | - | 121 W/m² | - |
| 1777481785 | 23.33° C | 92% | 1014.3 hPa | 0 mm | - | 62 W/m² | - |
| 1777481482 | 23.33° C | 92% | 1014.4 hPa | 0 mm | - | 57 W/m² | - |
| 1777481178 | 23.33° C | 92% | 1014.5 hPa | 0 mm | - | 57 W/m² | - |
| 1777480875 | 23.33° C | 93% | 1014.4 hPa | 0 mm | - | 61 W/m² | - |
| 1777480571 | 23.33° C | 92% | 1014.5 hPa | 0 mm | - | 72 W/m² | - |
| 1777480269 | 23.89° C | 90% | 1014.8 hPa | 0 mm | - | 21 W/m² | - |
| 1777479964 | 26.11° C | 88% | 1014.8 hPa | 0 mm | - | 12 W/m² | - |
| 1777479661 | 27.22° C | 88% | 1014.4 hPa | 0 mm | - | 25 W/m² | - |
| 1777479360 | 27.22° C | 88% | 1014.4 hPa | 0 mm | - | 81 W/m² | - |
| 1777479055 | 27.22° C | 88% | 1014.4 hPa | 0 mm | - | 135 W/m² | - |
| 1777478752 | 26.67° C | 88% | 1014.3 hPa | 0 mm | - | 79 W/m² | - |
| 1777478448 | 28.33° C | 86% | 1014.2 hPa | 0 mm | - | 112 W/m² | - |
| 1777478145 | 27.78° C | 87% | 1014.1 hPa | 0 mm | - | 368 W/m² | - |
| 1777477842 | 27.78° C | 87% | 1013.8 hPa | 0 mm | - | 228 W/m² | - |
| 1777477537 | 27.22° C | 89% | 1013.9 hPa | 0 mm | - | 462 W/m² | - |
| 1777477234 | 26.67° C | 90% | 1014 hPa | 0 mm | - | 209 W/m² | - |
| 1777476930 | 26.67° C | 90% | 1014.1 hPa | 0 mm | - | 195 W/m² | - |
| 1777476629 | 26.67° C | 92% | 1014.1 hPa | 0 mm | - | 409 W/m² | - |
| 1777476325 | 26.11° C | 93% | 1014.2 hPa | 0 mm | - | 205 W/m² | - |
| 1777476021 | 26.11° C | 93% | 1013.9 hPa | 0 mm | - | 197 W/m² | - |
| 1777475716 | 26.11° C | 94% | 1014 hPa | 0 mm | - | 188 W/m² | - |
| 1777475413 | 25.56° C | 94% | 1014.1 hPa | 0 mm | - | 197 W/m² | - |
* Rain latest hour (hover to see other rain measurements)
** Current wind speed in m/s (hover to see current wind gust speed)